Weather History for KW22 - January, 2014

Change the Weather History Date:

Tuesday, January 14, 2014

  Actual Average (KEKN) Record (KEKN)
Temperature  
Mean Temperature 38 °F 29 °F  
Max Temperature 44 °F 39 °F 72 °F (1932)
Min Temperature 33 °F 19 °F -12 °F (1912)
Degree Days  
Heating Degree Days 26 36  
Month to date heating degree days 504  
Since 1 July heating degree days 2795  
Cooling Degree Days 0 0  
Month to date cooling degree days 0  
Year to date cooling degree days 0  
Moisture  
Dew Point 36 °F    
Average Humidity 85    
Maximum Humidity 100    
Minimum Humidity 61    
Precipitation  
Precipitation 0.10 in 0.10 in 0.85 in (1909)
Month to date precipitation 1.44  
Year to date precipitation 1.44  
Snow  
Snow 0.00 in - - ()
Month to date snowfall  
Since 1 September snowfall  
Snow Depth -    
Sea Level Pressure  
Sea Level Pressure 29.83 in    
Wind  
Wind Speed 6 mph (SW)    
Max Wind Speed 14 mph    
Max Gust Speed 21 mph    
Visibility 9 miles    
Events Rain    
T = Trace of Precipitation, MM = Missing Value Source: NWS Daily Summary

Daily Weather History Graph

Daily Weather History Graph

Search for Another Location

Airport or City:

Trip Planner

Search our weather history database for the weather conditions in past years. The results will help you decide how hot, cold, wet, or windy it might be!

Date:

Astronomy

Jan. 14, 2014 Rise Set
Actual Time 7:38 AM EST 5:21 PM EST
Civil Twilight 7:09 AM EST 5:51 PM EST
Nautical Twilight 6:36 AM EST 6:24 PM EST
Astronomical Twilight 6:04 AM EST 6:56 PM EST
Moon 4:25 PM EST (1/14) 6:12 AM EST (1/14)
Length of Visible Light 10h 41m
Length of Day
9h 43m
Waxing Gibbous, 98% of the Moon is Illuminated
Jan 14
Waxing Gibbous
Jan 15
Full
Jan 24
Last Quarter
Jan 30
New
Feb 6
First Quarter

Hourly Weather History & Observations

Time (EST) Temp. Windchill Dew Point Humidity Pressure Visibility Wind Dir Wind Speed Gust Speed Precip Events Conditions
7:55 AM 42.8 °F 38.6 °F 42.8 °F 100% 29.78 in 4.0 mi SW 6.9 mph - N/A   Unknown
8:15 AM 42.8 °F 39.3 °F 42.8 °F 100% 29.78 in 4.0 mi SW 5.8 mph - 0.01 in Rain Light Rain
8:35 AM 42.8 °F 39.3 °F 42.8 °F 100% 29.78 in 7.0 mi SW 5.8 mph - 0.01 in Rain Light Rain
8:55 AM 42.8 °F 38.6 °F 42.8 °F 100% 29.80 in 4.0 mi SW 6.9 mph - 0.02 in Rain Light Rain
9:15 AM 42.8 °F 39.3 °F 42.8 °F 100% 29.80 in 3.0 mi West 5.8 mph - 0.04 in Rain Light Rain
9:35 AM 42.8 °F 38.6 °F 42.8 °F 100% 29.82 in 5.0 mi SSW 6.9 mph - 0.04 in Rain Light Rain
9:55 AM 42.8 °F 38.0 °F 42.8 °F 100% 29.82 in 10.0 mi SW 8.1 mph 17.3 mph 0.05 in   Mostly Cloudy
10:15 AM 42.8 °F 38.0 °F 42.8 °F 100% 29.81 in 4.0 mi SW 8.1 mph - N/A Rain Light Rain
10:35 AM 41.0 °F 37.1 °F 41.0 °F 100% 29.81 in 4.0 mi West 5.8 mph - 0.02 in Rain Light Rain
10:55 AM 41.0 °F 35.8 °F 41.0 °F 100% 29.81 in 3.0 mi WSW 8.1 mph - 0.03 in   Overcast
11:15 AM 41.0 °F 37.1 °F 41.0 °F 100% 29.80 in 5.0 mi SW 5.8 mph - N/A Rain Light Rain
11:35 AM 41.0 °F 38.0 °F 41.0 °F 100% 29.79 in 10.0 mi SW 4.6 mph - N/A   Overcast
11:55 AM 42.8 °F 38.6 °F 42.8 °F 100% 29.79 in 10.0 mi SW 6.9 mph - N/A   Overcast
12:15 PM 42.8 °F 40.1 °F 42.8 °F 100% 29.78 in 10.0 mi SSW 4.6 mph - N/A   Overcast
12:35 PM 42.8 °F 38.6 °F 41.0 °F 93% 29.77 in 10.0 mi SW 6.9 mph - N/A   Overcast
12:55 PM 42.8 °F 37.5 °F 41.0 °F 93% 29.77 in 10.0 mi West 9.2 mph - N/A   Overcast
1:15 PM 42.8 °F 36.6 °F 39.2 °F 87% 29.77 in 10.0 mi WSW 11.5 mph - N/A   Mostly Cloudy
1:35 PM 44.6 °F 39.2 °F 39.2 °F 81% 29.78 in 10.0 mi West 10.4 mph - N/A   Overcast
1:55 PM 44.6 °F 38.1 °F 37.4 °F 76% 29.78 in 10.0 mi WSW 13.8 mph - N/A   Mostly Cloudy
2:15 PM 42.8 °F 36.6 °F 37.4 °F 81% 29.79 in 10.0 mi WSW 11.5 mph - N/A   Scattered Clouds
2:35 PM 42.8 °F 36.2 °F 35.6 °F 76% 29.81 in 10.0 mi WSW 12.7 mph 19.6 mph N/A   Clear
2:55 PM 44.6 °F 38.4 °F 33.8 °F 66% 29.82 in 10.0 mi WSW 12.7 mph 19.6 mph N/A   Clear
3:15 PM 44.6 °F 40.7 °F 33.8 °F 66% 29.84 in 10.0 mi West 6.9 mph 20.7 mph N/A   Mostly Cloudy
3:35 PM 44.6 °F 39.7 °F 32.0 °F 61% 29.84 in 10.0 mi West 9.2 mph - N/A   Mostly Cloudy
3:55 PM 44.6 °F 39.2 °F 32.0 °F 61% 29.84 in 10.0 mi West 10.4 mph 17.3 mph N/A   Clear
4:15 PM 44.6 °F 40.7 °F 32.0 °F 61% 29.84 in 10.0 mi SW 6.9 mph - N/A   Clear
4:35 PM 42.8 °F 39.3 °F 32.0 °F 66% 29.83 in 10.0 mi SW 5.8 mph - N/A   Clear
4:55 PM 42.8 °F 40.1 °F 32.0 °F 66% 29.83 in 10.0 mi SW 4.6 mph - N/A   Clear
5:15 PM 42.8 °F 39.3 °F 32.0 °F 66% 29.84 in 10.0 mi WSW 5.8 mph - N/A   Clear
5:35 PM 41.0 °F 37.1 °F 32.0 °F 70% 29.85 in 10.0 mi WSW 5.8 mph - N/A   Clear
5:55 PM 39.2 °F - 32.0 °F 75% 29.85 in 10.0 mi Calm Calm - N/A   Clear
6:15 PM 39.2 °F - 32.0 °F 75% 29.86 in 10.0 mi Calm Calm - N/A   Clear
6:35 PM 39.2 °F - 32.0 °F 75% 29.86 in 10.0 mi Calm Calm - N/A   Clear
6:55 PM 37.4 °F - 32.0 °F 81% 29.86 in 10.0 mi Calm Calm - N/A   Clear
7:15 PM 39.2 °F - 32.0 °F 75% 29.86 in 10.0 mi Calm Calm - N/A   Clear
7:35 PM 37.4 °F - 32.0 °F 81% 29.86 in 10.0 mi Calm Calm - N/A   Clear
7:55 PM 35.6 °F 32.8 °F 32.0 °F 87% 29.86 in 10.0 mi South 3.5 mph - N/A   Clear
8:15 PM 35.6 °F 31.7 °F 32.0 °F 87% 29.86 in 10.0 mi SSW 4.6 mph - N/A   Clear
8:35 PM 33.8 °F 29.6 °F 32.0 °F 93% 29.87 in 10.0 mi South 4.6 mph - N/A   Clear
8:55 PM 33.8 °F 28.6 °F 32.0 °F 93% 29.87 in 10.0 mi SSW 5.8 mph - N/A   Clear
9:15 PM 35.6 °F 31.7 °F 32.0 °F 87% 29.86 in 10.0 mi South 4.6 mph - N/A   Clear
9:35 PM 33.8 °F 28.6 °F 32.0 °F 93% 29.86 in 10.0 mi South 5.8 mph - N/A   Clear
9:55 PM 33.8 °F 27.7 °F 32.0 °F 93% 29.87 in 10.0 mi South 6.9 mph - N/A   Clear
10:15 PM 35.6 °F 30.7 °F 32.0 °F 87% 29.87 in 10.0 mi South 5.8 mph - N/A   Clear
10:35 PM 35.6 °F 31.7 °F 30.2 °F 81% 29.87 in 10.0 mi South 4.6 mph - N/A   Clear
10:55 PM 35.6 °F 31.7 °F 30.2 °F 81% 29.86 in 10.0 mi South 4.6 mph - N/A   Partly Cloudy
11:15 PM 35.6 °F - 30.2 °F 81% 29.86 in 10.0 mi Calm Calm - N/A   Partly Cloudy
11:35 PM 35.6 °F - 30.2 °F 81% 29.85 in 10.0 mi Calm Calm - N/A   Clear
11:55 PM 37.4 °F - 30.2 °F 75% 29.84 in 10.0 mi Calm Calm - N/A   Clear